Weather in Mikheyevka

Russia / Orenburg Oblast     54°18′38″N   52°41′25″E
temp.,
°C
wind,
m/s
gust,
m/s
humid.,
%
clouds,
%
prec.,
mm/h
press.,
hPa
HPBL,
m
1 march, mon
mon123:00−18nnw339791 0.0 101135
02:00−19nnw239751 0.0 101326
05:00−19nnw239662 0.0 101530
08:00−22nnw2210042 0.0 101720
11:00−19nw249639 0.0 1019172
14:00−16nnw339076 0.0 1020309
17:00−15nw359388 0.0 1021406
20:00−20wnw2210099 0.0 102020
2 march, tue
tue223:00−22wsw2210073 0.0 102120
02:00−22sw2310010 0.0 101920
05:00−21ssw4810031 0.0 1017146
08:00−17ssw51299100 0.1 1013266
11:00−13ssw71495100 0.7 1010431
14:00−9ssw81494100 0.6 1006546
17:00−6ssw81495100 1.6 1003634
20:00−3sw71496100 1.0 1001629
3 march, wed
wed323:00−2wsw61196100 2.4 1000522
02:00−4w4109889 0.1 999305
05:00−4w589594 0.2 1000391
08:00−9wsw489798 0.1 1000168
11:00−6w589594 0.1 1001298
14:00−4w479498 0.1 1001417
17:00−4w579398 0.1 1002574
20:00−6w3897100 0.2 1002215
4 march, thu
thu423:00−8wnw4109598 0.3 1004337
02:00−8nw6129391 0.1 1004462
05:00−13wnw499794 0.1 1006165
08:00−14w499898 0.1 1007182
11:00−11wsw589799 0.1 1008247
14:00−7sw61094100 0.1 1007463
17:00−6sw81293100 0.3 1006667
20:00−4sw101693100 0.3 1003868
5 march, fri
fri523:00−3sw111895100 1.6 1002947
02:00−2sw111893100 0.6 9991006
05:00−2sw111894100 1.1 9991072
08:00−2wsw111795100 1.1 1000919
11:00−2w81292100 2.2 1003932
14:00−3w6118199 0.1 1006784
17:00−4w498599 0.1 1008601
20:00−9w349398 0.0 101062